Regional Weather Roundup
Issued by NWS

Home | Current Version | Previous Version | Graphics & Text | Print | Product List | Glossary On
Versions: 1 2 3 4 5 6 7 8 9 10 11 12 13 14 15 16 17 18 19 20 21 22 23 24 25 26 27 28 29 30 31 32 33 34 35 36 37 38 39 40 41 42 43 44 45 46 47 48 49 50
459
ASUS43 KLMK 191602
RWRKY
KENTUCKY REGIONAL WEATHER ROUNDUP
NATIONAL WEATHER SERVICE LOUISVILLE KY
1100 AM EST SUN NOV 19 2017

NOTE "FAIR" INDICATES FEW OR NO CLOUDS BELOW 12,000 FEET
WITH NO SIGNIFICANT WEATHER AND/OR OBSTRUCTIONS TO VISIBILITY.

KYZ001>023-026-027-061>063-070>075-191700-
WESTERN AND SOUTH CENTRAL KENTUCKY

CITY           SKY/WX    TMP DP  RH WIND       PRES   REMARKS
PADUCAH        MOSUNNY   41  24  51 NW9       30.22R
HENDERSON      SUNNY     37  24  59 NW21      30.20R WCI  26
OWENSBORO      CLOUDY    37  26  64 NW13      30.18R WCI  29
HOPKINSVILLE   SUNNY     39  20  47 NW18      30.18R WCI  29
BOWLING GREEN  CLOUDY    40  31  70 W8        30.14R WCI  34
GLASGOW        NOT AVBL
$$

KYZ024-025-028>034-038-045-046-053-191700-
NORTH CENTRAL KENTUCKY

CITY           SKY/WX    TMP DP  RH WIND       PRES   REMARKS
LOUISVILLE/SDF CLOUDY    38  29  70 W14       30.11R WCI  30
LOUISVILLE/LOU CLOUDY    38  31  76 W15       30.10R WCI  29
FORT KNOX      CLOUDY    36  28  75 W10       30.09R WCI  28
$$

KYZ035>037-039>044-047>052-055>060-089>105-191700-
NORTHEAST KENTUCKY

CITY           SKY/WX    TMP DP  RH WIND       PRES   REMARKS
LEXINGTON      CLOUDY    40  31  70 W13G20    30.05R WCI  32
COVINGTON      CLOUDY    38  31  76 W21       30.02R WCI  28
FRANKFORT      CLOUDY    38  28  67 W8        30.05R WCI  32
$$

KYZ054-064>069-076>088-106>120-191700-
SOUTHEAST KENTUCKY

CITY           SKY/WX    TMP DP  RH WIND       PRES   REMARKS
JACKSON        CLOUDY    38  31  76 VRB5      30.02R WCI  34
LONDON         CLOUDY    40  30  67 W10       30.06R WCI  33
SOMERSET       NOT AVBL
MIDDLESBORO    CLOUDY    40  31  69 NW6       30.07R
MONTICELLO     CLOUDY    40  31  70 NW14      30.11R WCI  32
$$





USA.gov is the U.S. government's official web portal to all federal, state and local government web resources and services.